Wind_Speed
7 7 8 11 9 7 10 11 11 11 12 14 17 20 23 25 24 23 22 22 20 19 17 17 17 11 4 6 3 25 22 11 7 14 18 6 8 5 5 8 17 12 10 10 11 14 8
9 7 7 9 13 10 9 10 11 14 12 14 16 18 22 25 26 24 23 21 20 17 16 14 15 6 3 5 12 25 14 10 11 14 8 9 9 13 9 6 5 7 18 9 9 9 5
8 9 8 8 9 10 12 11 12 14 14 14 15 18 21 24 27 26 25 21 19 15 14 11 12 6 6 3 12 22 16 15 28 29 13 21 13 8 6 10 8 12 17 8 3 3 5
10 9 9 8 9 11 13 14 14 13 13 15 15 16 19 23 27 26 25 22 16 13 10 7 8 3 1 8 8 20 17 21 27 27 33 30 28 11 7 8 5 7 5 4 4 4 3
10 10 9 8 8 10 12 14 15 15 13 15 16 17 18 21 26 27 25 22 9 9 7 5 3 3 1 8 4 15 15 6 20 25 24 26 17 8 8 11 5 6 3 2 1 8 5
9 9 11 11 11 12 11 12 13 16 14 12 15 18 17 20 24 27 25 12 4 7 5 3 4 4 6 3 6 7 8 9 8 5 7 8 6 6 4 4 4 5 4 3 5 7 2
9 9 10 10 11 12 12 12 14 15 16 14 13 17 17 18 22 25 24 5 7 6 8 1 5 2 3 8 4 8 9 6 6 8 3 4 6 11 17 7 7 5 4 5 3 5 5
10 9 10 9 10 11 12 11 13 14 14 15 14 15 18 16 20 19 11 5 3 2 5 7 4 3 2 4 3 7 5 5 5 2 3 5 3 2 8 3 4 5 4 4 1 5 5
9 10 9 10 10 11 14 13 13 14 15 14 14 12 16 14 19 7 7 5 8 5 1 6 3 2 3 3 1 5 3 3 4 3 2 3 1 2 6 3 3 3 6 3 3 3 4
11 12 12 11 12 13 13 14 14 14 15 15 14 10 11 14 9 11 3 10 9 4 5 5 2 2 0 1 3 2 4 4 4 5 5 3 3 2 5 1 3 4 8 6 7 5 4
13 13 12 11 11 11 12 13 15 14 13 16 12 11 7 9 12 5 6 13 9 1 3 3 2 1 2 3 2 3 5 4 5 3 4 3 1 3 4 2 1 4 5 7 3 3 3
13 13 13 12 12 11 11 11 13 15 14 14 15 11 7 7 8 7 10 9 2 7 5 2 1 2 4 2 1 1 3 5 4 5 5 2 1 1 1 2 2 4 6 7 5 2 2
16 15 14 14 13 12 11 12 13 14 15 14 14 11 8 7 3 5 7 3 5 5 4 3 3 3 2 3 2 2 2 2 4 5 1 4 3 3 2 3 4 5 6 2 3 3 5
16 16 16 14 14 13 12 13 14 13 15 13 13 14 13 18 13 4 3 5 4 5 6 1 3 3 4 3 2 3 3 2 2 4 3 6 2 2 4 2 4 1 5 5 5 3 4
16 17 16 16 15 15 14 13 13 13 12 12 13 10 10 17 17 6 5 3 8 7 5 8 4 3 2 1 4 2 5 6 6 6 5 4 2 1 3 2 2 2 1 2 6 3 2
18 16 18 17 16 15 14 13 12 12 9 9 7 5 7 18 15 7 4 6 5 5 3 4 6 4 7 5 4 4 6 4 4 7 3 5 4 1 1 1 2 1 4 3 3 2 4
19 18 17 18 18 17 15 14 13 11 7 8 4 2 4 15 15 3 4 6 6 6 4 5 6 5 5 6 6 4 8 2 3 3 5 4 3 3 1 2 6 1 1 5 4 4 4
21 19 21 21 20 18 17 16 13 10 7 6 3 3 2 27 4 3 3 6 4 4 3 2 4 3 7 7 5 4 7 2 4 4 7 1 5 3 3 1 1 2 2 5 4 4 3
25 23 22 21 20 20 19 17 15 12 10 4 2 1 3 3 4 3 3 4 3 4 5 5 4 3 3 6 4 3 2 4 5 2 8 7 1 3 6 4 4 2 2 4 3 3 5
26 26 25 22 21 21 20 18 17 14 13 8 3 3 2 2 1 7 6 6 4 4 5 4 4 3 4 2 2 5 2 4 4 2 6 7 3 6 6 4 4 0 3 1 4 2 3
26 26 25 24 23 23 22 19 17 15 14 9 2 4 4 4 4 4 13 4 10 5 4 4 2 4 6 4 3 4 3 2 4 4 4 3 5 3 4 4 4 4 5 6 7 7 6
27 27 27 26 24 24 23 21 19 17 16 11 2 2 1 3 9 12 9 9 10 11 8 6 7 7 4 6 7 7 6 2 3 3 2 3 1 2 2 1 5 4 8 9 8 4 8
29 28 28 26 25 25 25 22 22 20 20 10 6 11 3 7 7 10 9 16 19 8 5 9 9 7 6 6 5 3 2 4 7 8 4 4 5 3 3 3 2 4 11 9 5 4 5
29 28 26 25 26 26 25 23 23 22 25 15 3 4 1 4 10 14 13 19 20 11 4 4 7 8 5 9 6 6 9 7 7 5 4 6 5 2 2 3 1 7 3 5 7 7 8
29 28 27 26 27 27 26 24 21 22 23 24 19 3 3 2 8 10 14 16 8 10 6 5 4 5 13 6 4 5 5 6 3 4 2 3 5 3 3 3 6 7 2 3 3 5 1
29 28 26 27 27 27 26 25 21 18 20 20 18 12 2 3 8 12 15 12 12 8 4 2 4 5 7 4 4 4 4 6 3 2 5 5 5 4 2 3 5 6 3 1 2 5 2
29 27 26 27 28 28 26 25 22 17 15 21 7 14 3 3 4 9 8 7 7 10 3 2 6 1 4 3 3 3 3 4 4 7 5 2 2 5 2 2 7 7 7 0 3 6 2
29 28 27 26 27 29 26 25 22 17 13 16 12 17 11 3 5 3 3 12 4 11 6 5 5 3 3 4 4 4 3 6 3 5 6 7 6 3 3 3 7 5 2 5 5 2 1
29 27 27 29 27 26 26 26 19 16 13 13 11 15 26 5 4 18 19 17 28 35 9 1 5 6 5 4 1 3 2 2 5 3 2 2 7 5 8 6 4 3 4 2 4 3 3
Wind_Direction
347 327 308 319 329 311 287 305 304 317 327 338 347 351 356 354 350 345 343 340 338 337 337 345 354 351 28 41 313 346 348 4 357 108 82 95 49 93 90 105 77 82 94 73 95 85 76
336 329 325 297 307 321 306 295 301 310 315 328 337 344 351 351 348 344 341 337 334 332 332 342 351 1 45 68 338 355 19 39 92 107 76 86 100 107 76 20 64 122 104 101 88 103 122
331 328 330 318 323 297 310 304 299 303 307 316 327 337 344 346 346 344 338 335 330 327 329 336 348 13 58 202 4 17 45 73 106 101 101 117 129 87 103 80 75 105 98 70 87 154 130
339 331 330 332 313 326 333 314 314 296 301 311 316 327 336 342 343 341 338 332 326 321 329 321 348 6 178 344 39 40 59 83 88 87 96 98 90 94 81 120 67 84 51 87 262 164 185
304 322 329 326 325 324 334 332 313 308 295 302 311 318 329 337 341 340 336 330 325 337 339 333 16 9 284 340 36 24 23 55 88 93 85 75 68 77 66 113 49 20 136 99 157 217 152
311 310 308 322 321 318 324 323 319 312 304 295 306 312 324 334 340 339 337 330 330 26 352 1 35 36 349 324 334 11 39 44 79 65 31 44 61 88 40 79 173 179 147 181 196 211 117
308 314 316 314 319 319 315 321 322 321 318 305 301 310 316 329 337 340 346 3 13 358 31 37 291 244 328 330 353 24 13 36 24 45 75 351 118 160 178 178 141 138 146 184 205 185 133
303 302 307 316 314 320 324 316 322 323 319 307 300 300 309 323 333 342 5 54 63 300 325 313 299 309 317 4 334 345 46 76 58 46 79 34 134 247 192 251 279 115 153 207 124 148 149
292 295 299 304 313 314 318 322 317 323 327 316 294 298 306 312 332 353 6 31 345 356 58 301 258 277 289 52 62 316 30 134 97 97 190 125 130 76 145 247 159 108 173 181 154 94 49
284 289 289 292 294 296 307 314 318 321 320 319 302 290 300 309 320 342 21 352 343 347 59 267 230 267 340 117 30 315 324 121 69 134 114 118 326 123 148 106 167 143 155 156 135 114 216
273 283 287 289 293 299 301 308 313 313 312 320 308 280 297 294 313 319 316 333 331 136 32 270 199 200 3 141 142 351 342 33 123 126 114 221 38 91 100 199 52 193 131 144 133 105 110
273 275 281 282 285 294 303 306 312 316 314 311 321 286 278 270 276 297 317 327 352 47 257 239 141 178 116 52 40 357 20 37 124 84 43 126 36 69 137 35 32 136 81 53 53 66 357
274 273 272 277 279 286 292 301 307 313 315 309 307 304 250 203 242 337 324 30 48 131 281 216 183 160 136 129 91 86 89 45 141 101 121 25 337 337 42 73 30 74 71 2 352 2 226
270 271 269 272 273 275 282 292 299 306 313 307 304 302 243 227 230 305 359 61 109 233 211 194 121 105 163 160 218 134 97 136 309 86 116 145 251 3 2 48 184 155 148 151 210 195 270
266 269 268 269 269 270 276 286 296 301 306 312 314 294 248 236 213 261 77 92 202 209 192 145 72 126 213 183 185 163 163 176 214 186 137 138 185 168 66 350 84 206 169 165 103 22 44
265 263 265 265 266 263 267 276 291 299 297 310 318 272 244 233 193 159 88 223 220 210 148 109 157 174 183 194 171 157 188 200 202 196 107 198 111 32 314 123 35 139 151 73 358 159 256
260 261 263 262 260 257 261 267 280 291 278 291 253 236 230 184 145 75 171 223 231 236 161 138 178 154 193 184 187 202 199 206 157 138 90 130 98 285 21 190 185 82 61 51 118 136 180
253 259 259 260 257 254 255 262 267 279 262 281 263 226 300 147 154 149 162 198 230 199 184 141 120 128 177 165 156 237 207 189 349 153 136 100 122 156 189 333 359 185 212 145 126 241 236
253 257 257 258 256 251 251 256 259 263 233 267 247 162 190 116 146 181 198 263 250 183 175 158 148 171 171 159 150 178 142 28 26 147 160 179 10 49 343 1 3 186 75 105 114 101 199
248 253 256 254 251 249 246 248 252 250 230 235 293 167 164 86 267 169 170 199 222 210 181 141 139 112 110 123 59 175 117 10 349 72 39 90 127 160 193 200 146 216 214 146 133 136 191
242 247 250 250 247 245 241 240 246 241 223 214 253 242 188 187 209 173 192 170 195 202 208 159 84 163 153 132 103 161 145 150 37 14 58 95 170 143 220 209 185 203 205 184 190 213 192
239 242 247 248 246 240 236 235 236 232 215 225 264 232 246 160 145 169 191 213 208 225 152 204 139 174 152 153 181 191 141 177 180 43 94 10 144 135 300 234 220 254 258 228 225 250 246
236 239 243 243 243 237 234 231 232 227 207 219 228 276 268 148 159 172 194 202 224 216 249 169 150 123 144 193 186 163 138 150 159 151 144 111 130 104 247 356 34 319 235 219 202 195 170
234 236 238 239 237 232 226 228 228 226 214 217 254 281 203 191 175 195 203 203 212 236 225 172 136 132 200 114 109 48 47 74 77 67 121 131 108 104 193 40 28 242 236 225 214 245 218
232 233 233 235 230 227 221 226 228 227 219 222 243 336 307 216 179 196 207 204 232 282 244 178 195 190 145 74 68 51 355 25 347 35 109 102 119 81 132 197 286 301 3 132 172 285 155
228 229 230 231 225 221 219 222 224 224 219 221 241 240 270 320 220 183 199 190 191 209 287 143 29 96 69 86 82 135 180 193 217 105 61 75 66 117 123 131 232 236 279 53 75 289 322
224 226 227 226 218 216 217 217 218 217 217 217 234 233 284 276 280 191 190 201 172 186 269 127 148 128 52 93 95 145 207 169 167 167 175 95 34 153 135 201 286 245 248 22 99 238 317
222 222 221 214 218 207 215 213 213 214 218 212 234 212 195 237 262 334 270 175 138 181 182 217 83 330 45 75 122 201 139 215 131 165 178 166 150 181 88 90 273 189 64 172 209 158 99
220 220 212 210 205 209 205 208 217 214 222 218 233 218 219 282 283 319 303 274 197 194 189 341 164 160 168 95 135 108 119 86 153 217 117 216 181 179 178 210 237 240 217 178 154 150 147
Height
861 860 861 861 859 857 857 856 855 853 853 850 847 844 841 839 836 833 829 825 822 820 817 812 808 804 800 806 808 799 792 790 787 788 788 792 801 812 830 833 832 847 852 856 862 865 872
861 860 860 861 859 858 856 855 854 853 852 849 847 845 841 839 836 832 829 825 821 819 816 813 809 806 803 818 805 800 794 791 789 789 790 793 808 810 829 838 840 847 852 862 865 869 873
862 861 859 858 859 858 857 854 853 853 852 850 846 844 841 839 836 831 828 824 820 818 816 813 810 808 807 812 806 801 796 795 794 793 796 801 805 809 828 848 849 851 860 867 869 870 876
862 861 859 858 858 857 856 855 853 852 851 849 847 844 842 839 835 831 826 823 819 817 815 813 811 810 812 807 806 801 801 801 801 799 798 804 805 816 832 845 855 864 870 885 872 874 874
863 861 860 858 857 856 855 854 853 851 850 849 847 844 843 839 836 830 825 821 818 816 815 814 812 812 815 808 806 806 805 805 804 805 807 807 808 829 841 855 873 874 886 881 879 875 875
860 860 858 857 856 854 853 852 852 850 849 846 846 845 841 838 835 831 824 820 819 815 816 815 813 821 813 815 810 808 807 807 807 808 812 816 831 849 859 865 883 878 880 878 883 875 876
858 858 856 856 855 854 853 852 851 849 847 845 844 844 843 839 836 834 826 820 823 822 820 825 824 822 815 815 812 809 809 808 811 816 833 832 845 857 852 856 856 863 870 875 872 868 875
856 856 856 856 854 854 852 851 850 848 846 845 844 845 843 840 838 836 832 832 837 839 837 822 820 820 815 815 819 813 810 818 824 838 829 843 851 842 842 850 852 861 871 872 864 866 870
855 855 855 855 854 853 852 850 849 846 844 844 845 844 844 841 839 839 837 838 837 836 841 829 821 820 818 817 823 821 815 819 829 839 838 850 845 838 846 850 854 859 867 871 868 869 875
855 854 854 853 853 851 851 850 848 845 845 843 844 844 843 842 844 839 838 839 836 836 860 839 826 821 818 818 825 818 818 819 829 847 845 848 844 842 847 848 851 857 853 859 870 877 891
854 853 852 852 851 851 849 848 848 846 843 844 842 843 843 845 843 841 842 838 837 839 892 833 825 819 819 825 825 821 820 820 834 840 842 852 848 850 852 850 846 854 850 861 867 878 878
852 851 851 851 850 849 848 847 846 845 842 842 842 842 843 844 843 842 840 838 838 879 888 835 825 826 828 826 826 823 825 822 828 842 845 849 843 845 846 844 845 847 856 870 881 887 901
849 849 849 849 849 848 846 846 845 844 842 841 841 841 842 843 843 841 840 840 876 897 842 837 834 828 831 833 832 831 834 838 847 860 857 855 854 846 844 850 847 857 874 915 905 919 908
847 847 847 847 846 847 845 845 845 842 843 840 839 840 837 840 842 843 841 854 888 855 845 826 829 833 839 834 835 834 841 849 842 847 864 866 870 857 852 854 857 858 868 908 896 913 893
844 844 844 844 843 844 844 844 843 842 842 840 838 836 836 835 840 842 848 889 866 848 831 832 834 840 838 833 838 838 843 848 845 843 858 868 863 855 853 854 855 861 873 868 890 901 901
840 840 840 840 841 841 842 842 842 841 841 840 838 838 832 830 836 840 856 855 841 828 824 825 842 839 848 842 843 844 849 838 837 839 837 854 870 860 855 853 856 858 863 887 905 905 901
835 837 836 837 837 839 839 840 840 840 840 841 839 835 828 829 831 840 861 851 831 821 819 827 837 841 840 842 844 846 846 835 832 837 836 853 865 870 859 863 869 870 874 883 888 902 904
831 830 831 833 834 835 837 838 838 838 839 840 836 832 827 825 835 839 852 835 821 817 818 820 826 829 837 838 841 845 842 836 836 833 843 849 871 883 864 861 861 862 865 874 902 893 908
824 825 827 828 829 831 833 834 835 837 838 837 833 828 828 823 834 835 833 828 821 819 819 823 825 823 826 836 842 837 838 838 836 835 843 847 875 890 874 872 869 866 878 889 896 892 887
819 820 821 823 825 827 829 832 834 835 836 840 833 832 829 828 832 827 821 825 824 814 817 818 822 822 827 832 832 842 841 842 839 839 842 842 866 868 883 869 882 886 876 899 888 900 885
813 815 816 818 820 823 826 828 830 831 834 839 831 824 817 825 831 822 816 818 821 818 813 815 822 824 830 840 837 842 843 843 841 842 842 849 863 871 868 863 866 863 864 878 883 871 875
806 809 811 813 815 818 821 823 825 828 832 834 827 818 815 817 818 820 823 817 819 816 815 818 821 826 829 839 836 844 841 842 840 844 845 855 865 863 862 861 865 866 863 863 868 862 865
799 802 805 807 810 812 816 819 821 824 829 827 822 817 812 808 817 820 819 814 815 814 809 808 815 827 832 829 828 826 831 834 836 846 853 858 874 880 872 868 868 879 857 851 853 853 853
792 796 799 802 804 807 811 814 816 819 822 823 820 818 811 814 810 807 808 814 812 812 813 809 812 820 821 822 826 831 837 841 841 846 848 862 871 889 895 878 902 851 841 842 847 845 846
785 789 793 796 799 802 806 810 812 815 818 820 820 819 812 813 802 805 807 811 814 814 814 811 809 808 813 823 849 854 868 854 849 848 848 852 873 896 901 893 868 844 840 839 841 842 838
778 783 786 789 793 798 802 805 809 811 814 818 816 820 822 812 803 799 805 806 814 818 816 808 812 814 815 842 862 876 869 855 857 852 856 859 864 875 896 893 888 855 839 834 836 855 840
772 776 781 784 788 793 797 802 805 808 811 813 814 815 820 815 798 794 800 803 805 812 819 815 813 816 819 858 873 867 861 849 860 860 868 870 881 890 905 887 868 845 840 835 854 860 840
767 771 775 779 783 789 794 798 802 805 808 809 810 814 817 815 799 796 793 792 799 808 823 815 819 826 839 852 857 865 862 856 852 852 856 858 879 897 902 907 874 839 837 845 846 841 842
761 765 770 774 779 785 790 795 799 802 804 806 807 809 814 814 800 796 795 789 785 788 803 809 804 811 817 841 854 857 856 867 852 857 849 853 850 862 864 859 841 836 836 835 839 842 844